0 HST 1 20580U 90037B 25352.01685449 .00005616 00000-0 19114-3 0 9995 2 20580 28.4674 236.5696 0001951 306.2349 53.8065 15.28122551760808 0 ISS (ZARYA) 1 25544U 98067A 25354.21533065 .00006989 00000-0 13177-3 0 9998 2 25544 51.6321 105.4589 0003199 275.1086 84.9538 15.49679666544013 0 CXO 1 25867U 99040B 25354.55178789 .00000629 00000-0 00000-0 0 9996 2 25867 53.1580 122.2771 8124205 310.8135 0.2560 0.37797284 16644